Погода в Кызыле

Погода в Кызыле : погода сейчас, прогноз погоды и архив. Всё, что Вы хотите узнать о погоде в Кызыле!

Хотите узнать прогноз погоды в Кызыле? Тогда Вам сюда: Погода в Кызыле

Поиск расширенной информации на нашем сайте:

Другие новости

Новости СМИ2

Главная страница сайта

Новости сайта

03.07.2017

Напоминаем, что на нашем специализированном сайте Метеоцентр.Азия вы можете получить высокодетализированные автоматические прогнозы погоды по пунктам России, СНГ и мира в авиационном формате (включающие направление и скорость ветра, видимость, явления погоды, количество и форму облачности, нижнюю и верхнюю границу облачности).


Погода в Кызыле - сегодня

Время (UTC), дата Ветер
(°,м/с) 
Видим.   Явления Облачность Т
(°С)
Тd
(°С)
f(%) Тe
(°С)
Pmin
(гПа)
dP
(гПа)
Po
(мм)
O2
(г/м3)
Тmin Tmax R s Состояние
почвы
06 20.02.18 070 (В) 20000 м  в посл. час снег  9/0 верхняя 
[Ci fib]
-16 -19.4 75 -16  1045.5  -0.8  722  310           
09 20.02.18 050 (СВ) 20000 м    9/0 средняя, верхняя 
[Ac trans|Ci fib]
-13.9 -18.2 70 -14  1043  -1.7  720  307           
12 20.02.18 080 (В) 10 км    9/0 средняя, верхняя 
[Ac trans|Ci fib]
-17 -21.2 70 -17  1042.9  -1  719  311    -13.5  0.0     
15 20.02.18 тихо ()   10 км    9/0 средняя, верхняя 
[Ac trans|Cs]
-19.1 -21.7 80 -19  1042.9  -0.7  719  313           
18 20.02.18 030 (СВ) 10 км    9/0 средняя, верхняя 
[Ac trans|Cs]
-20.1 -22.7 80 -20  1041.8  -1.3  718  314           
21 20.02.18 060 (СВ) 10 км    10/0 средняя 
[Ac As]
-19.6 -22.2 80 -20  1040.5  -1  717  313           
00 21.02.18 тихо ()   4000 м  слаб. снег  10/0 средняя 
[Ac As]
-19.9 -22.5 80 -20  1039.7  -0.9  717  313  -20.6    0.0  22  равномерный
сухой снег
100% 
09 21.02.18 040 (СВ) 20000 м    8/0 средняя, верхняя 
[Ac trans|Ci fib]
-11.9 -17.1 65 -12  1032.5  -2.4  713  302           
12 21.02.18 тихо ()   10 км    9/0 средняя, верхняя 
[Ac trans|Ci fib]
-15.4 -18.8 75 -15  1033.2  -0.5  713  306    -11.4  0.0     
15 21.02.18 040 (СВ) 10 км    6/0 средняя, верхняя 
[Ac trans|Ci fib]
-17.6 -20.2 80 -18  1032.1  -1.6  712  308           
18 21.02.18 070 (В) 10 км    6/0 верхняя 
[Ci fib]
-21.4 -23.2 85 -22  1032.4  -0.9  711  313           
21 21.02.18 050 (СВ) 10 км    9/0 средняя, верхняя 
[Ac trans|Cs]
-20.7 -22.6 85 -21  1030.8  -1.3  710  311           
00 22.02.18 тихо ()   10 км    9/0 средняя, верхняя 
[Ac trans|Cs]
-21 -22.9 85 -21  1029.6  -1.2  709  311  -21.8      22  равномерный
сухой снег
100% 
09 22.02.18 020 (С) 20000 м  {снег}  10/0 средняя 
[Ac As]
-11.4 -15.8 70 -11  1024.3  -0.7  708  299           
12 22.02.18 тихо ()   4000 м  слаб. снег  10/0 средняя 
[Ac As]
-12.7 -14.7 85 -13  1025.9  1.2  709  301    -10.8  0.4     
21 22.02.18 тихо ()   10 км    3/0 верхняя 
[Ci fib]
-17.4 -18.6 90 -17  1030.8  1.2  711  307           
00 23.02.18 тихо ()   4000 м  слаб. снег  8/0 средняя, верхняя 
[Ac trans|Cs]
-19.3 -20.5 90 -19  1032.9  1.4  712  310  -19.9    0.5  23  равномерный
сухой снег
100% 
03 23.02.18 тихо ()   4000 м  слаб. снег  9/0 средняя, верхняя 
[Ac trans|Cs]
-17.2 -18.4 90 -17  1033.5  1.1  713  308  -21.2         
06 23.02.18 030 (СВ) 10 км  {снег}  9/0 верхняя 
[Ci sp]
-11.7 -16.1 70 -14  1031.6  713  301           
09 23.02.18 020 (С) 20000 м    8/0 средняя, верхняя 
[Ac trans|Ci fib]
-10.7 -16 65 -11  1030  -1.1  712  300           
12 23.02.18 тихо ()   10 км    8/3 1000 м средняя, верхняя 
[Sc|Ac trans|Ci fib]
-12.8 -16.3 75 -13  1030.2  -0.5  712  302    -9.8  0.0     
15 23.02.18 060 (СВ) 10 км    9/0 средняя, верхняя 
[Ac trans|Cs]
-14.2 -16.9 80 -14  1030.6  -0.1  712  304           
18 23.02.18 340 (С) 10 км    9/0 средняя, верхняя 
[Ac trans|Cs]
-16.8 -18.7 85 -17  1031.2  -0.3  711  307           
21 23.02.18 060 (СВ) 10 км    10/0 средняя 
[Ac As]
-17.5 -19.4 85 -20  1030.8  -0.5  711  308           
00 24.02.18 тихо ()   10 км    10/0 средняя, верхняя 
[Ac As|Cs]
-18.2 -20.1 85 -18  1030.5  -0.5  711  308  -18.9      23  равномерный
сухой снег
100% 
Время (UTC), дата Ветер
(°,м/с) 
Видим.   Явления Облачность Т
(°С)
Тd
(°С)
f(%) Тe
(°С)
Pmin
(гПа)
dP
(гПа)
Po
(мм)
O2
(г/м3)
Тmin Tmax R s Состояние
почвы

Для получения пояснительной информации подведите курсор к названию столбца.

ПОГОДА в Кызыле - архив

Всё, что Вы хотите узнать о погоде в Кызыле - удобно и подробно!

Выберите нужную дату (начиная с 1 января 2015* года) и нажмите кнопку "Найти".
Будут отображены архивные сводки погоды по пункту Кызыл, начиная с указанной даты.


Отображать данные в формате CSV (для использования в таблицах Excel)


Внимание! Наш архив погоды предназначен исключительно для личного некоммерческого использования в познавательных целях. Если Вам необходимы официальные справки о состоянии погоды (для производственных, юридических, коммерческих и т.п. целей), обращайтесь в органы Росгидромета.

*Примечание: данная дата относится к архиву по метеостанциям СССР (Россия, СНГ, Балтия).
Архив по метеостанциям Зарубежной Европы и Азии (кроме Китая) хранится 10 дней, по другим регионам земного шара (Китай, Африка, Америка, Австралия, Океания) - 1 день.

Кызыл - район местоположения метеостанции


Название, широта, долгота, высота метеостанции:
Кызыл 51.7°ш. 94.5°д. 628 м над ур. моря [Российская Федерация]

Дополнительная информация

В oтличие oт бoльшинства пoгoдных сайтoв мы публикуем пoдрoбную метеoинфoрмацию в детальнoм прoфессиoнальнoм фoрмате.

Характеристики температуры и влажнoсти вoздуха измеряются на высoте 2 м в тени вдали oт зданий и деревьев.
Скoрoсть ветра измеряется на высoте 10 м (на урoвне рoста челoвека скoрoсть ветра ниже в 1.5-2 раза). Если метеoстанция нахoдится в гoрoде или в лесу, тo скoрoсть ветра занижена на 2-4 м/с пo сравнению с oткрытым местoм. Скoрoсть ветра над акватoриями крупных рек и oзёр, а также на вершинах хoлмoв на 2-5 м/с выше, чем в oбычных услoвиях.
Атмoсфернoе давление в разных тoчках местнoсти мoжет значительнo oтличаться oт давления на метеoстанции, в зависимoсти oт услoвий рельефа (при пoдъёме на 10 м давление пoнижается примернo на 1 мм рт.ст.).